Pratica di Mare, Italy

6:11 PM CEST on August 20, 2017 (GMT +0200)
Pratica Di Mare Mil

Weather History for LIRE - November, 2012

Change the Weather History Date:

Saturday, November 17, 2012

  Actual Average Record
Temperature  
Mean Temperature 57 °F -  
Max Temperature 65 °F 60 °F 69 °F (2002)
Min Temperature 49 °F 44 °F 41 °F (1998)
Degree Days  
Heating Degree Days 8    
Growing Degree Days 7 (Base 50)    
Moisture  
Dew Point 50 °F    
Average Humidity 78    
Maximum Humidity 94    
Minimum Humidity 53    
Precipitation  
Precipitation 0.24 in 0.15 in - ()
Sea Level Pressure  
Sea Level Pressure 29.97 in    
Wind  
Wind Speed 7 mph ()    
Max Wind Speed 12 mph    
Max Gust Speed -    
Visibility 6.5 miles    
Events Rain    
Averages and records for this station are not official NWS values.
T = Trace of Precipitation, MM = Missing Value Source: Averaged Metar Reports

Daily Weather History Graph

Daily Weather History Graph

Search for Another Location

Airport or City:

Trip Planner

Search our weather history database for the weather conditions in past years. The results will help you decide how hot, cold, wet, or windy it might be!

Date:

Astronomy

Nov. 17, 2012 Rise Set
Actual Time 7:02 AM CET 4:48 PM CET
Civil Twilight 6:31 AM CET 5:18 PM CET
Nautical Twilight 5:58 AM CET 5:51 PM CET
Astronomical Twilight 5:25 AM CET 6:24 PM CET
Moon 10:33 AM CET (11/17) 8:38 PM CET (11/17)
Length of Visible Light 10h 46m
Length of Day
9h 46m
Waxing Crescent, 18% of the Moon is Illuminated
Nov 17
Waxing Crescent
Nov 20
First Quarter
Nov 28
Full
Dec 6
Last Quarter
Dec 13
New

Hourly Weather History & Observations

Time (CET) Temp. Dew Point Humidity Pressure Visibility Wind Dir Wind Speed Gust Speed Precip Events Conditions
12:55 AM 51.8 °F 46.4 °F 82% 30.01 in 6.2 mi NNE 9.2 mph - N/A   Partly Cloudy
1:00 AM 52 °F 47 °F 76% 30.02 in 6 mi NNE 9.2 mph - -   Scattered Clouds
1:55 AM 51.8 °F 46.4 °F 82% 30.01 in 6.2 mi NNE 9.2 mph - N/A   Partly Cloudy
2:55 AM 51.8 °F 46.4 °F 82% 29.98 in 6.2 mi NNE 9.2 mph - N/A   Partly Cloudy
3:55 AM 51.8 °F 46.4 °F 82% 29.98 in 6.2 mi NNE 9.2 mph - N/A   Partly Cloudy
4:00 AM 51 °F 46 °F 77% 30.00 in 6 mi NNE 9.2 mph - -   Scattered Clouds
4:55 AM 50.0 °F 46.4 °F 87% 29.98 in 6.2 mi North 11.5 mph - N/A   Partly Cloudy
5:55 AM 50.0 °F 46.4 °F 87% 29.98 in 6.2 mi NNE 10.4 mph - N/A   Partly Cloudy
6:55 AM 50.0 °F 46.4 °F 87% 29.98 in 6.2 mi NNE 10.4 mph - N/A   Partly Cloudy
7:00 AM 50 °F 46 °F 81% 29.98 in 9 mi NNE 10.4 mph - -   Scattered Clouds
7:55 AM 50.0 °F 46.4 °F 87% 29.98 in - NNE 11.5 mph - N/A   Clear
8:55 AM 53.6 °F 46.4 °F 77% 29.98 in - North 6.9 mph - N/A   Clear
9:55 AM 57.2 °F 50.0 °F 77% 30.01 in - NNE 8.1 mph - N/A   Clear
10:00 AM 57 °F 50 °F 70% 30.01 in 16 mi NNE 8.1 mph - -  
10:55 AM 60.8 °F 51.8 °F 72% 30.01 in 6.2 mi North 4.6 mph - N/A   Partly Cloudy
11:55 AM 62.6 °F 51.8 °F 68% 30.01 in 6.2 mi Variable 2.3 mph - N/A   Scattered Clouds
12:55 PM 64.4 °F 51.8 °F 64% 29.98 in 6.2 mi West 4.6 mph - N/A   Partly Cloudy
1:00 PM 65 °F 52 °F 53% 29.99 in 9 mi West 4.6 mph - -   Scattered Clouds
1:55 PM 64.4 °F 51.8 °F 64% 29.95 in 6.2 mi West 3.5 mph - N/A   Partly Cloudy
2:55 PM 66.2 °F 51.8 °F 60% 29.95 in 6.2 mi NNE 6.9 mph - N/A   Partly Cloudy
3:55 PM 62.6 °F 51.8 °F 68% 29.95 in - NNE 5.8 mph - N/A   Clear
4:00 PM 63 °F 53 °F 60% 29.95 in 11 mi NNE 5.8 mph - -   Partly Cloudy
4:55 PM 60.8 °F 51.8 °F 72% 29.92 in - North 4.6 mph - N/A   Clear
5:55 PM 59.0 °F 53.6 °F 82% 29.92 in - NNE 5.8 mph - N/A   Clear
6:55 PM 59.0 °F 53.6 °F 82% 29.92 in 6.2 mi NE 3.5 mph - N/A   Scattered Clouds
7:00 PM 58 °F 53 °F 78% 29.94 in 9 mi NE 3.5 mph - -   Mostly Cloudy
7:55 PM 59.0 °F 53.6 °F 82% 29.92 in 6.2 mi ENE 4.6 mph - N/A   Mostly Cloudy
8:55 PM 59.0 °F 55.4 °F 88% 29.92 in 5.0 mi NE 2.3 mph - N/A Rain Light Rain
9:55 PM 57.2 °F 55.4 °F 94% 29.92 in 4.3 mi NE 4.6 mph - N/A Rain Light Rain
10:00 PM 58 °F 55 °F 85% 29.94 in 4 mi NE 4.6 mph - - Rain Light Rain
10:36 PM 57.2 °F 55.4 °F 94% 29.92 in 2.5 mi North 3.5 mph - N/A Rain Rain
10:55 PM 57.2 °F 53.6 °F 88% 29.92 in 3.1 mi North 4.6 mph - N/A Rain Light Rain
11:55 PM 57.2 °F 53.6 °F 88% 29.92 in 3.1 mi North 5.8 mph - N/A Rain Light Rain